Location: Centerville
(32.8776°N, 96.6203°W)
Time: 13:34:18
(UTC+00:00)

ALOS - Pass Details

Date: 17 June 2021
Orbit: 683 x 684 km, 97.9° (Epoch: 31 July)

Event Time Altitude Azimuth Distance (km) Brightness Sun altitude
Rises 10:38:39 0° 9° (N) 3,052 6.3 -7.9°
Reaches altitude 10° 10:40:54 10° 7° (N) 2,132 5.4 -7.5°
Maximum altitude 10:45:33 71° 284° (WNW) 726 2.3 -6.7°
Drops below altitude 10° 10:50:10 10° 201° (SSW) 2,119 4.3 -5.9°
Sets 10:52:24 0° 199° (SSW) 3,030 5.1 -5.5°
